Weather History for EGVO - October, 2013

Change the Weather History Date:

Friday, October 11, 2013

  Actual Average Record
Temperature  
Mean Temperature 50 °F -  
Max Temperature 56 °F - - ()
Min Temperature 45 °F - - ()
Degree Days  
Heating Degree Days 14    
Moisture  
Dew Point 45 °F    
Average Humidity 80    
Maximum Humidity 100    
Minimum Humidity 47    
Precipitation  
Precipitation 0.20 in - - ()
Sea Level Pressure  
Sea Level Pressure 30.06 in    
Wind  
Wind Speed 16 mph ()    
Max Wind Speed 22 mph    
Max Gust Speed 32 mph    
Visibility 6.7 miles    
Events Rain    
T = Trace of Precipitation, MM = Missing Value Source: Averaged Metar Reports

Daily Weather History Graph

Daily Weather History Graph

Search for Another Location

Airport or City:

Trip Planner

Search our weather history database for the weather conditions in past years. The results will help you decide how hot, cold, wet, or windy it might be!

Date:

Astronomy

Oct. 11, 2013 Rise Set
Actual Time 7:20 AM BST 6:19 PM BST
Civil Twilight 6:47 AM BST 6:52 PM BST
Nautical Twilight 6:09 AM BST 7:30 PM BST
Astronomical Twilight 5:30 AM BST 8:09 PM BST
Moon 2:13 PM BST (10/11) 11:26 PM BST (10/11)
Length of Visible Light 12h 05m
Length of Day
10h 58m
Waxing Crescent, 44% of the Moon is Illuminated
Oct 11
Waxing Crescent
Oct 12
First Quarter
Oct 19
Full
Oct 27
Last Quarter
Nov 3
New

Hourly Weather History & Observations

Time (BST) Temp. Windchill Dew Point Humidity Pressure Visibility Wind Dir Wind Speed Gust Speed Precip Events Conditions
12:50 AM 46 °F - 37 °F 61% 30.09 in 25 mi NW 19.6 mph - -   Mostly Cloudy
12:50 AM 46.4 °F 39.0 °F 37.4 °F 71% 30.06 in 6.2 mi NW 19.6 mph - N/A   Mostly Cloudy
1:50 AM 46.4 °F 39.2 °F 37.4 °F 71% 30.06 in 6.2 mi NW 18.4 mph - N/A   Mostly Cloudy
2:50 AM 46.4 °F 39.8 °F 39.2 °F 76% 30.04 in 6.2 mi NW 16.1 mph 28.8 mph N/A   Mostly Cloudy
3:50 AM 46 °F - 40 °F 74% 30.02 in 19 mi NW 17.3 mph - -   Mostly Cloudy
3:50 AM 46.4 °F 39.5 °F 41.0 °F 81% 30.01 in 6.2 mi NW 17.3 mph - N/A   Mostly Cloudy
4:50 AM 46.4 °F 39.5 °F 42.8 °F 87% 29.98 in 6.2 mi NNW 17.3 mph - N/A   Mostly Cloudy
5:50 AM 46.4 °F 39.0 °F 44.6 °F 93% 29.98 in 6.2 mi NNW 19.6 mph - N/A Rain Light Rain
6:50 AM 48 °F - 45 °F 84% 30.03 in 22 mi North 12.7 mph - - Rain Light Rain
6:50 AM 48.2 °F - 44.6 °F 87% 30.01 in 6.2 mi North 12.7 mph - N/A   Overcast
7:50 AM 48.2 °F - 44.6 °F 87% 30.06 in 6.2 mi NNE 16.1 mph - N/A   Mostly Cloudy
8:50 AM 50.0 °F - 44.6 °F 82% 30.09 in 6.2 mi NNE 16.1 mph - N/A   Mostly Cloudy
9:50 AM 51 °F - 44 °F 70% 30.12 in 22 mi NNE 18.4 mph - -   Scattered Clouds
9:50 AM 51.8 °F - 44.6 °F 76% 30.09 in 6.2 mi NNE 18.4 mph - N/A   Partly Cloudy
10:50 AM 53.6 °F - 42.8 °F 67% 30.12 in 6.2 mi NNE 18.4 mph - N/A   Scattered Clouds
11:50 AM 55.4 °F - 41.0 °F 58% 30.12 in 6.2 mi NNE 8.1 mph 21.9 mph N/A   Mostly Cloudy
12:50 PM 55 °F - 40 °F 47% 30.11 in 22 mi NNE 8.1 mph - - Rain Light Rain
12:50 PM 55.4 °F - 41.0 °F 58% 30.09 in 6.2 mi NNE 8.1 mph 21.9 mph N/A Rain Light Rain
1:50 PM 51.8 °F - 48.2 °F 88% 30.06 in 1.9 mi NNW 9.2 mph - N/A Rain Light Rain
2:50 PM 51.8 °F - 51.8 °F 100% 30.06 in 3.1 mi NNW 12.7 mph - N/A Rain Rain
3:50 PM 53 °F - 51 °F 91% 30.06 in 5 mi North 19.6 mph - - Rain Light Rain
3:50 PM 53.6 °F - 51.8 °F 94% 30.04 in 5.0 mi North 19.6 mph - N/A Rain Light Rain
4:50 PM 53.6 °F - 50.0 °F 88% 30.04 in 6.2 mi North 18.4 mph - N/A Rain Light Rain
5:50 PM 55.4 °F - 50.0 °F 82% 30.04 in 6.2 mi North 19.6 mph - N/A   Mostly Cloudy
6:50 PM 55 °F - 50 °F 78% 30.06 in 12 mi North 21.9 mph - -   Partly Cloudy
6:50 PM 55.4 °F - 50.0 °F 82% 30.04 in 6.2 mi North 21.9 mph - N/A   Overcast
7:50 PM 53.6 °F - 50.0 °F 88% 30.06 in 6.2 mi North 20.7 mph - N/A Rain Light Rain
8:50 PM 53.6 °F - 50.0 °F 88% 30.06 in 6.2 mi North 19.6 mph - N/A Rain Light Rain
9:50 PM 54 °F - 49 °F 79% 30.06 in 11 mi North 20.7 mph - - Rain Light Rain
9:50 PM 53.6 °F - 50.0 °F 88% 30.04 in 6.2 mi North 20.7 mph 32.2 mph N/A   Overcast
10:50 PM 53.6 °F - 50.0 °F 88% 30.04 in 6.2 mi North 20.7 mph 32.2 mph N/A Rain Light Rain
11:50 PM 53.6 °F - 48.2 °F 82% 30.04 in 6.2 mi North 19.6 mph - N/A Rain Light Rain